| time (UTC) | temp F | wind direction | speed MPH | gust MPH | rain 1hr in | rain 24hr in | rain mn in | humidity % | barometer mb |
| 20260510220703 | 64 | 0 | 2.0 | 5.0 | 0.00 | 0.35 | 0.24 | 67 | 1022.3 |
| 20260510220203 | 63 | 11 | 2.0 | 7.0 | 0.00 | 0.35 | 0.24 | 66 | 1022.5 |
| 20260510213703 | 63 | 317 | 2.0 | 3.0 | 0.00 | 0.35 | 0.24 | 64 | 1023.4 |
| 20260510213203 | 63 | 329 | 3.0 | 8.0 | 0.00 | 0.35 | 0.24 | 65 | 1023.5 |
| 20260510210703 | 62 | 346 | 3.0 | 10.0 | 0.00 | 0.35 | 0.24 | 67 | 1024.0 |
| 20260510210204 | 62 | 346 | 5.0 | 12.0 | 0.00 | 0.35 | 0.24 | 68 | 1023.8 |
| 20260510203703 | 61 | 359 | 3.0 | 9.0 | 0.00 | 0.35 | 0.24 | 71 | 1023.3 |
| 20260510200204 | 60 | 345 | 3.0 | 9.0 | 0.00 | 0.35 | 0.24 | 75 | 1023.0 |
| 20260510193703 | 60 | 359 | 2.0 | 3.0 | 0.00 | 0.35 | 0.24 | 77 | 1022.9 |
| 20260510193203 | 60 | 352 | 5.0 | 8.0 | 0.00 | 0.35 | 0.24 | 77 | 1023.0 |
| 20260510190203 | 58 | 1 | 1.0 | 3.0 | 0.01 | 0.35 | 0.24 | 84 | 1023.1 |
| 20260510183204 | 57 | 12 | 0.0 | 3.0 | 0.01 | 0.35 | 0.24 | 85 | 1022.3 |
| 20260510180703 | 57 | 4 | 1.0 | 2.0 | 0.00 | 0.34 | 0.23 | 86 | 1022.7 |
| 20260510180203 | 57 | 4 | 1.0 | 8.0 | 0.00 | 0.34 | 0.23 | 86 | 1022.9 |
| 20260510173703 | 58 | 9 | 1.0 | 3.0 | 0.02 | 0.34 | 0.23 | 87 | 1023.4 |
| 20260510173203 | 58 | 9 | 2.0 | 8.0 | 0.03 | 0.34 | 0.23 | 87 | 1023.5 |
| 20260510170703 | 57 | 2 | 2.0 | 5.0 | 0.08 | 0.34 | 0.23 | 86 | 1022.5 |
| 20260510170203 | 57 | 0 | 1.0 | 3.0 | 0.08 | 0.34 | 0.23 | 86 | 1022.2 |
| 20260510163204 | 58 | 337 | 1.0 | 3.0 | 0.05 | 0.31 | 0.20 | 84 | 1022.8 |
| 20260510160704 | 58 | 338 | 1.0 | 3.0 | 0.00 | 0.26 | 0.15 | 83 | 1022.8 |
| 20260510160203 | 58 | 6 | 1.0 | 13.0 | 0.00 | 0.26 | 0.15 | 82 | 1022.2 |
| 20260510153703 | 60 | 5 | 5.0 | 17.0 | 0.00 | 0.26 | 0.15 | 81 | 1020.4 |
| 20260510153203 | 60 | 8 | 6.0 | 13.0 | 0.00 | 0.26 | 0.15 | 81 | 1020.8 |
| 20260510150704 | 61 | 357 | 5.0 | 12.0 | 0.00 | 0.26 | 0.15 | 83 | 1020.0 |
| 20260510150204 | 61 | 42 | 3.0 | 12.0 | 0.00 | 0.26 | 0.15 | 83 | 1019.8 |
| 20260510143703 | 60 | 336 | 5.0 | 12.0 | 0.00 | 0.26 | 0.15 | 86 | 1020.1 |
| 20260510143203 | 60 | 345 | 2.0 | 6.0 | 0.00 | 0.26 | 0.15 | 86 | 1019.7 |
| 20260510140204 | 60 | 335 | 1.0 | 3.0 | 0.00 | 0.26 | 0.15 | 86 | 1019.1 |
| 20260510133704 | 60 | 323 | 1.0 | 3.0 | 0.02 | 0.26 | 0.15 | 86 | 1018.7 |
| 20260510130703 | 61 | 2 | 1.0 | 3.0 | 0.05 | 0.26 | 0.15 | 85 | 1019.2 |
| 20260510130204 | 61 | 1 | 2.0 | 8.0 | 0.05 | 0.26 | 0.15 | 84 | 1019.2 |
| 20260510123703 | 61 | 329 | 4.0 | 9.0 | 0.03 | 0.24 | 0.13 | 83 | 1019.5 |
| 20260510123203 | 61 | 335 | 2.0 | 9.0 | 0.03 | 0.24 | 0.13 | 83 | 1019.5 |
| 20260510120703 | 61 | 333 | 2.0 | 8.0 | 0.00 | 0.21 | 0.10 | 78 | 1019.8 |
| 20260510120203 | 61 | 12 | 3.0 | 6.0 | 0.00 | 0.21 | 0.10 | 78 | 1020.0 |
| 20260510113703 | 60 | 294 | 2.0 | 3.0 | 0.00 | 0.21 | 0.10 | 78 | 1019.1 |
| 20260510113204 | 60 | 261 | 0.0 | 3.0 | 0.00 | 0.21 | 0.10 | 78 | 1018.8 |
| 20260510110703 | 60 | 338 | 2.0 | 5.0 | 0.00 | 0.22 | 0.10 | 78 | 1016.7 |
| 20260510110204 | 60 | 1 | 2.0 | 5.0 | 0.00 | 0.22 | 0.10 | 78 | 1016.3 |
| 20260510093703 | 61 | 3 | 0.0 | 3.0 | 0.00 | 0.22 | 0.10 | 81 | 1014.6 |
| 20260510093203 | 61 | 3 | 1.0 | 2.0 | 0.00 | 0.22 | 0.10 | 80 | 1014.7 |
| 20260510090703 | 62 | 3 | 1.0 | 3.0 | 0.00 | 0.22 | 0.10 | 79 | 1014.8 |
| 20260510090203 | 62 | 3 | 2.0 | 10.0 | 0.00 | 0.22 | 0.10 | 79 | 1014.7 |
| 20260510083703 | 62 | 346 | 3.0 | 8.0 | 0.00 | 0.22 | 0.10 | 79 | 1014.3 |
| 20260510083204 | 62 | 2 | 4.0 | 10.0 | 0.00 | 0.22 | 0.10 | 79 | 1014.1 |
| 20260510080704 | 63 | 221 | 1.0 | 3.0 | 0.00 | 0.22 | 0.10 | 78 | 1013.0 |
| 20260510080203 | 63 | 224 | 2.0 | 7.0 | 0.00 | 0.22 | 0.10 | 77 | 1013.1 |
| 20260510073704 | 63 | 139 | 2.0 | 7.0 | 0.00 | 0.22 | 0.10 | 76 | 1012.5 |
| 20260510073204 | 63 | 150 | 5.0 | 13.0 | 0.00 | 0.22 | 0.10 | 76 | 1012.4 |
| 20260510070703 | 63 | 148 | 6.0 | 10.0 | 0.00 | 0.22 | 0.10 | 78 | 1012.2 |
| 20260510070203 | 62 | 155 | 5.0 | 14.0 | 0.00 | 0.22 | 0.10 | 79 | 1012.3 |
| 20260510063704 | 62 | 147 | 7.0 | 14.0 | 0.02 | 0.22 | 0.10 | 81 | 1012.4 |
| 20260510063203 | 61 | 157 | 7.0 | 17.0 | 0.03 | 0.22 | 0.10 | 83 | 1012.4 |
| 20260510060703 | 61 | 133 | 3.0 | 9.0 | 0.09 | 0.22 | 0.10 | 87 | 1014.3 |
| 20260510060204 | 62 | 126 | 4.0 | 7.0 | 0.10 | 0.22 | 0.10 | 87 | 1014.6 |
| 20260510053703 | 62 | 154 | 0.0 | 2.0 | 0.03 | 0.20 | 0.08 | 85 | 1017.1 |
| 20260510053203 | 62 | 154 | 1.0 | 3.0 | 0.04 | 0.19 | 0.07 | 84 | 1016.2 |
| 20260510050705 | 63 | 235 | 0.0 | 5.0 | 0.00 | 0.13 | 0.01 | 81 | 1018.0 |
| 20260510043703 | 68 | 299 | 2.0 | 8.0 | 0.04 | 0.05 | 0.05 | 71 | 1018.2 |
| 20260510043203 | 69 | 288 | 1.0 | 10.0 | 0.02 | 0.03 | 0.03 | 67 | 1017.3 |
| 20260510040704 | 72 | 356 | 5.0 | 8.0 | 0.00 | 0.01 | 0.01 | 56 | 1015.6 |
| 20260510040204 | 73 | 333 | 1.0 | 5.0 | 0.00 | 0.01 | 0.01 | 53 | 1014.3 |
| 20260510033204 | 73 | 97 | 1.0 | 7.0 | 0.00 | 0.01 | 0.01 | 49 | 1013.2 |
| 20260510030703 | 73 | 107 | 3.0 | 7.0 | 0.00 | 0.01 | 0.01 | 50 | 1012.7 |
| 20260510023203 | 74 | 109 | 3.0 | 8.0 | 0.00 | 0.01 | 0.01 | 47 | 1012.2 |
| 20260510020704 | 75 | 78 | 2.0 | 6.0 | 0.00 | 0.01 | 0.01 | 45 | 1011.7 |
| 20260510020204 | 75 | 101 | 2.0 | 7.0 | 0.00 | 0.01 | 0.01 | 44 | 1011.2 |
| 20260510013703 | 76 | 95 | 4.0 | 8.0 | 0.00 | 0.01 | 0.01 | 41 | 1010.4 |
| 20260510013203 | 77 | 93 | 3.0 | 7.0 | 0.00 | 0.01 | 0.01 | 41 | 1010.3 |
| 20260510003704 | 81 | 151 | 4.0 | 7.0 | 0.00 | 0.01 | 0.01 | 35 | 1010.0 |
| 20260510003203 | 81 | 126 | 4.0 | 12.0 | 0.00 | 0.01 | 0.01 | 35 | 1010.1 |
| 20260510000703 | 82 | 147 | 6.0 | 12.0 | 0.00 | 0.01 | 0.01 | 33 | 1010.0 |
| 20260510000204 | 83 | 148 | 7.0 | 13.0 | 0.00 | 0.01 | 0.01 | 34 | 1010.0 |
| 20260509233703 | 84 | 161 | 6.0 | 15.0 | 0.00 | 0.01 | 0.01 | 33 | 1010.1 |
| 20260509233204 | 84 | 125 | 6.0 | 14.0 | 0.00 | 0.01 | 0.01 | 32 | 1010.0 |
| 20260509230704 | 84 | 136 | 9.0 | 14.0 | 0.00 | 0.01 | 0.01 | 32 | 1010.1 |
| 20260509223704 | 85 | 137 | 9.0 | 13.0 | 0.00 | 0.01 | 0.01 | 33 | 1010.3 |